N12KBM KLAX-KSNA

Flight info

Callsign N12KBM
Flight time N/A
Altitude VFR/045
Route
Aircraft VL3/L-VGD/C

Departure

Time 2026-04-21 00:16
Airport Los Angeles International Airport (KLAX)

Arrival

Time N/A
Airport John Wayne Orange County International Airport (KSNA)
Time Latitude Longitude Altitude Speed Heading
2026-04-21 00:02 33.93382 -118.39913 120 ft 0 kts 22°
2026-04-21 00:10 33.93404 -118.39901 119 ft 8 kts 57°
2026-04-21 00:10 33.93403 -118.39837 120 ft 12 kts 82°
2026-04-21 00:10 33.93421 -118.39815 119 ft 0 kts 349°
2026-04-21 00:12 33.93426 -118.39816 118 ft 0 kts 349°
2026-04-21 00:13 33.93463 -118.39753 120 ft 17 kts 82°
2026-04-21 00:13 33.93476 -118.39605 120 ft 14 kts 83°
2026-04-21 00:13 33.93493 -118.39474 120 ft 15 kts 88°
2026-04-21 00:13 33.93505 -118.39351 120 ft 11 kts 81°
2026-04-21 00:14 33.93514 -118.39240 120 ft 16 kts 84°
2026-04-21 00:14 33.93523 -118.39162 118 ft 10 kts 84°
2026-04-21 00:14 33.93534 -118.39107 120 ft 10 kts 52°
2026-04-21 00:14 33.93558 -118.39098 120 ft 0 kts
2026-04-21 00:15 33.93611 -118.39104 120 ft 11 kts 346°
2026-04-21 00:15 33.93648 -118.39139 118 ft 13 kts 271°
2026-04-21 00:15 33.93606 -118.39607 249 ft 73 kts 265°
2026-04-21 00:16 33.93546 -118.40223 504 ft 82 kts 262°
2026-04-21 00:16 33.93461 -118.40940 741 ft 87 kts 263°
2026-04-21 00:16 33.93350 -118.41669 898 ft 91 kts 259°
2026-04-21 00:16 33.93219 -118.42409 1052 ft 89 kts 258°
2026-04-21 00:17 33.93109 -118.43094 1368 ft 86 kts 258°
2026-04-21 00:17 33.92989 -118.43787 1698 ft 75 kts 257°
2026-04-21 00:17 33.92887 -118.44441 1964 ft 80 kts 260°
2026-04-21 00:17 33.92745 -118.45052 2398 ft 73 kts 250°
2026-04-21 00:18 33.92286 -118.45373 2612 ft 100 kts 163°
2026-04-21 00:18 33.91788 -118.44764 2755 ft 108 kts 133°
2026-04-21 00:18 33.91313 -118.44049 2757 ft 110 kts 131°
2026-04-21 00:18 33.90837 -118.43336 2837 ft 110 kts 136°
2026-04-21 00:19 33.90334 -118.42628 2874 ft 113 kts 135°
2026-04-21 00:19 33.89825 -118.41909 2935 ft 113 kts 134°
2026-04-21 00:19 33.89304 -118.41210 3067 ft 110 kts 135°
2026-04-21 00:19 33.88777 -118.40563 3177 ft 109 kts 140°
2026-04-21 00:20 33.88200 -118.39960 3217 ft 109 kts 142°
2026-04-21 00:20 33.87653 -118.39348 3328 ft 107 kts 137°
2026-04-21 00:20 33.87144 -118.38668 3304 ft 110 kts 134°
2026-04-21 00:20 33.86624 -118.38007 3308 ft 110 kts 136°
2026-04-21 00:21 33.86075 -118.37362 3272 ft 111 kts 140°
2026-04-21 00:21 33.85507 -118.36744 3278 ft 108 kts 141°
2026-04-21 00:21 33.84932 -118.36176 3262 ft 109 kts 143°
2026-04-21 00:21 33.84340 -118.35607 3273 ft 108 kts 143°
2026-04-21 00:22 33.83757 -118.35038 3284 ft 108 kts 142°
2026-04-21 00:22 33.83185 -118.34441 3286 ft 109 kts 139°
2026-04-21 00:22 33.82645 -118.33801 3306 ft 109 kts 135°
2026-04-21 00:22 33.82140 -118.33119 3311 ft 110 kts 131°
2026-04-21 00:23 33.81685 -118.32384 3338 ft 110 kts 123°
2026-04-21 00:23 33.81273 -118.31648 3486 ft 103 kts 126°
2026-04-21 00:23 33.80871 -118.30904 3482 ft 112 kts 125°
2026-04-21 00:23 33.80457 -118.30111 3472 ft 110 kts 123°
2026-04-21 00:24 33.80080 -118.29337 3519 ft 108 kts 123°
2026-04-21 00:24 33.79701 -118.28530 3445 ft 110 kts 121°
2026-04-21 00:24 33.79366 -118.27718 3486 ft 108 kts 121°
2026-04-21 00:24 33.79027 -118.26914 3535 ft 109 kts 119°
2026-04-21 00:25 33.78697 -118.26070 3502 ft 112 kts 115°
2026-04-21 00:25 33.78404 -118.25206 3493 ft 111 kts 115°
2026-04-21 00:25 33.78128 -118.24338 3495 ft 111 kts 114°
2026-04-21 00:25 33.77881 -118.23459 3478 ft 111 kts 109°
2026-04-21 00:26 33.77801 -118.23123 3484 ft 111 kts 108°
2026-04-21 00:26 33.77592 -118.22218 3497 ft 113 kts 107°
2026-04-21 00:26 33.77414 -118.21294 3500 ft 114 kts 105°
2026-04-21 00:26 33.77254 -118.20375 3492 ft 114 kts 105°
2026-04-21 00:27 33.77060 -118.19450 3474 ft 114 kts 109°
2026-04-21 00:27 33.76840 -118.18541 3517 ft 112 kts 110°
2026-04-21 00:27 33.76602 -118.17652 3556 ft 112 kts 111°
2026-04-21 00:27 33.76338 -118.16766 3595 ft 113 kts 113°
2026-04-21 00:28 33.76095 -118.15871 3628 ft 114 kts 109°
2026-04-21 00:28 33.75898 -118.14955 3670 ft 112 kts 104°
2026-04-21 00:28 33.75743 -118.14043 3701 ft 111 kts 102°
2026-04-21 00:28 33.75628 -118.13114 3716 ft 113 kts 99°
2026-04-21 00:29 33.75521 -118.12180 3671 ft 114 kts 103°
2026-04-21 00:29 33.75366 -118.11262 3682 ft 112 kts 107°
2026-04-21 00:29 33.75155 -118.10346 3630 ft 112 kts 110°
2026-04-21 00:29 33.74894 -118.09467 3621 ft 112 kts 114°
2026-04-21 00:30 33.74600 -118.08624 3628 ft 110 kts 119°
2026-04-21 00:30 33.74159 -118.07880 3575 ft 110 kts 139°
2026-04-21 00:30 33.73508 -118.07384 3460 ft 111 kts 160°
2026-04-21 00:30 33.72771 -118.07215 3432 ft 109 kts 181°
2026-04-21 00:31 33.72047 -118.07385 3439 ft 106 kts 202°
2026-04-21 00:31 33.71409 -118.07827 3429 ft 106 kts 212°
2026-04-21 00:31 33.70682 -118.07842 3295 ft 112 kts 156°
2026-04-21 00:31 33.70073 -118.07286 3272 ft 110 kts 144°
2026-04-21 00:32 33.69483 -118.06731 3312 ft 106 kts 147°
2026-04-21 00:32 33.68872 -118.06262 3322 ft 103 kts 155°
2026-04-21 00:32 33.68218 -118.05912 3307 ft 104 kts 161°
2026-04-21 00:32 33.67540 -118.05583 3283 ft 105 kts 160°
2026-04-21 00:33 33.66860 -118.05284 3303 ft 102 kts 166°
2026-04-21 00:33 33.66194 -118.05004 3352 ft 102 kts 164°